Terminal Aerodrome Forecast
Issued by NWS Cleveland, OH

Home | Current Version | Previous Version | Text Only | Print | Product List | Glossary Off
Versions: 1 2 3 4 5 6 7 8 9 10 11 12 13 14 15 16 17 18 19 20 21 22 23 24 25

000
FTUS41 KCLE 031300 AAB
TAFMFD
TAF AMD
KMFD 031356Z 0314/0412 14010KT P6SM SCT050 OVC060
      TEMPO 0314/0316 4SM -SNPL BKN030 OVC045
     FM031600 16012KT 3SM -FZRAPL BR BKN015 OVC030
     FM031800 20015KT 2SM -RA BR BKN005 OVC015 WS020/22040KT
     FM040200 24015G25KT 4SM -SHRA BKN005 OVC015=

USA.gov is the U.S. government's official web portal to all federal, state and local government web resources and services.